Temp
71 73 75 75 76 75 75 75 75 75 76 76 76 76 77 77 76 76 76 77 77 78 79 78 78 78 78 77 76 76 75 75 75 76 76 77 78 78 77 76 76 77 76
73 74 74 75 75 76 75 75 75 75 76 76 76 76 76 76 76 76 76 77 77 78 79 78 78 78 77 76 75 75 74 74 74 75 76 77 77 78 77 75 75 75 75
72 74 76 74 75 75 75 75 76 76 76 76 76 76 76 76 76 76 76 76 77 78 78 78 78 77 76 75 74 74 74 74 74 75 75 72 73 77 76 75 75 75 75
75 74 75 74 74 75 75 75 75 76 76 76 76 76 76 76 76 76 76 76 76 78 78 78 78 76 75 74 74 74 74 74 74 74 73 74 76 76 76 76 75 75 75
75 75 75 73 74 74 74 75 75 75 75 75 75 76 76 76 76 76 75 76 76 78 78 78 77 74 73 73 73 74 74 74 73 74 72 71 70 76 76 75 75 74 74
73 73 73 73 73 74 74 75 74 74 74 74 74 75 76 76 76 75 75 76 77 77 78 77 75 73 72 72 73 73 73 73 73 68 71 75 73 76 76 75 74 74 73
72 72 74 73 73 74 74 74 74 73 73 74 74 74 75 75 75 75 74 75 76 76 76 75 73 72 72 72 72 72 72 72 71 69 73 72 72 76 76 75 74 73 73
72 72 74 76 75 73 73 73 73 73 73 73 73 74 74 74 74 74 74 74 74 74 73 73 72 72 72 72 72 72 71 71 74 70 74 71 73 76 76 75 73 73 73
74 71 71 73 73 72 72 72 72 72 72 72 73 73 73 73 73 74 74 74 74 73 73 72 72 72 72 72 72 71 70 70 68 70 78 72 74 76 76 75 74 73 73
73 71 70 70 71 70 70 71 71 72 72 72 72 72 71 72 73 73 73 73 73 73 72 72 72 72 72 72 71 70 69 70 70 72 75 72 74 76 77 75 74 73 73
74 72 70 70 71 70 70 72 72 72 72 72 72 72 68 69 70 72 71 72 72 72 71 72 71 71 71 71 71 70 70 69 70 76 76 72 74 77 76 75 74 73 73
72 72 72 71 70 71 77 70 69 71 69 69 70 69 69 68 69 74 72 71 71 71 71 71 71 70 70 68 68 69 68 70 73 74 73 71 74 77 76 75 74 73 73
75 76 75 73 72 72 72 69 69 69 69 69 69 69 68 71 69 70 68 69 68 70 67 69 68 68 68 68 69 69 70 70 72 74 76 70 73 77 77 75 74 74 73
76 77 77 76 75 73 72 72 72 71 69 69 70 70 68 67 68 69 68 68 67 67 66 66 65 67 67 70 71 71 72 72 72 74 71 69 71 75 77 76 75 74 73
73 76 77 78 76 77 73 74 73 73 73 72 72 72 71 69 68 70 70 70 70 68 67 66 67 69 69 70 72 71 73 73 74 74 72 69 69 72 76 77 77 76 75
71 72 76 77 78 77 74 74 76 76 73 73 72 73 73 72 70 70 71 70 71 70 70 70 69 70 70 72 72 73 73 73 74 74 73 70 68 69 72 75 76 76 76
70 70 71 73 76 76 75 75 75 78 77 73 72 73 75 73 72 72 70 71 70 72 70 70 70 68 69 70 72 73 74 74 73 73 73 72 70 66 68 70 73 74 75
68 67 68 71 70 71 74 76 76 74 77 77 78 75 73 76 73 71 71 70 72 70 72 68 70 70 69 68 68 69 72 71 74 74 75 75 76 76 68 67 69 71 73
66 66 65 66 68 70 70 72 74 75 75 77 78 77 75 74 76 74 72 71 72 71 70 70 68 69 69 69 68 69 69 69 72 78 76 76 76 76 77 70 67 67 69
65 65 65 63 64 68 68 69 71 70 71 74 74 74 76 77 76 74 74 72 72 71 69 69 68 68 68 68 76 76 69 73 74 71 75 78 77 76 77 78 75 70 65
63 63 62 61 60 62 64 63 65 64 66 64 65 66 64 65 73 76 76 71 71 71 71 69 69 67 69 66 65 70 69 66 69 74 77 76 76 76 75 77 77 77 75
61 61 61 60 59 59 60 62 63 64 65 64 64 63 63 62 62 66 69 74 75 74 71 68 67 70 68 66 69 62 63 65 71 71 71 73 74 77 77 76 77 76 76
59 59 60 59 59 58 57 58 58 58 60 59 59 60 62 61 60 61 60 57 65 73 74 72 70 67 69 66 68 68 58 59 60 65 70 73 75 76 76 77 77 75 75
56 57 58 59 58 58 56 54 52 52 51 54 54 56 59 60 59 59 58 58 58 58 62 70 71 71 70 69 64 70 72 64 60 59 64 66 71 73 73 72 75 76 77
55 54 55 56 57 55 54 53 51 50 51 52 52 52 54 55 57 58 56 55 56 55 57 58 61 69 70 70 70 70 65 69 70 65 64 68 66 66 71 72 74 74 76
54 53 54 54 54 54 52 51 50 48 49 49 49 50 51 52 54 55 56 55 55 55 56 56 58 59 68 70 71 71 69 67 67 65 64 66 68 72 72 71 73 74 75
MSLP
1013.91 1013.55 1013.49 1013.68 1014.07 1014.45 1014.72 1015.03 1015.53 1015.93 1016.26 1016.46 1016.57 1016.71 1016.84 1016.87 1017.06 1017.24 1017.32 1017.54 1017.75 1018.06 1018.28 1018.43 1018.54 1018.65 1018.51 1018.67 1018.88 1019.08 1019.29 1019.42 1019.43 1019.51 1019.71 1019.94 1020.06 1020.12 1020.24 1020.38 1020.38 1020.57 1020.77
1013.12 1013.66 1013.67 1013.88 1014.30 1014.78 1015.14 1015.22 1015.54 1016.11 1016.54 1016.82 1016.98 1017.13 1017.26 1017.40 1017.49 1017.61 1017.93 1018.17 1018.35 1018.43 1018.54 1018.59 1018.69 1018.73 1018.92 1019.12 1019.21 1019.25 1019.44 1019.54 1019.68 1019.93 1020.19 1020.23 1020.29 1020.36 1020.46 1020.68 1020.75 1020.88 1021.00
1013.36 1013.75 1013.88 1014.18 1014.55 1015.09 1015.46 1015.66 1015.62 1016.10 1016.63 1017.01 1017.18 1017.38 1017.53 1017.74 1017.98 1018.22 1018.34 1018.38 1018.49 1018.61 1018.67 1018.90 1019.07 1019.32 1019.34 1019.48 1019.37 1019.56 1019.84 1019.93 1020.03 1020.28 1020.44 1020.55 1020.71 1020.84 1020.97 1020.99 1021.01 1021.01 1021.21
1013.29 1013.94 1014.21 1014.56 1014.92 1015.30 1015.75 1015.99 1016.15 1016.23 1016.61 1017.00 1017.32 1017.55 1017.76 1017.96 1018.20 1018.39 1018.60 1018.76 1018.86 1018.89 1019.00 1019.17 1019.42 1019.59 1019.58 1019.49 1019.61 1020.00 1020.13 1020.33 1020.36 1020.48 1020.79 1020.58 1020.78 1021.02 1021.06 1021.07 1021.22 1021.27 1021.44
1013.53 1013.98 1014.42 1014.76 1015.32 1015.63 1015.98 1016.35 1016.57 1016.68 1016.92 1017.13 1017.42 1017.64 1017.87 1018.12 1018.37 1018.59 1018.72 1018.86 1018.98 1019.07 1019.20 1019.41 1019.65 1019.81 1019.76 1019.76 1020.04 1020.26 1020.40 1020.57 1020.55 1020.67 1020.93 1020.87 1020.85 1021.06 1021.16 1021.23 1021.35 1021.37 1021.47
1014.16 1014.32 1014.46 1014.94 1015.42 1015.98 1016.24 1016.56 1016.92 1017.06 1017.24 1017.47 1017.61 1017.82 1018.05 1018.27 1018.52 1018.78 1018.93 1019.00 1019.16 1019.32 1019.46 1019.67 1019.86 1019.99 1020.03 1020.05 1020.25 1020.42 1020.57 1020.64 1020.66 1020.88 1020.82 1020.78 1020.75 1021.00 1021.13 1021.24 1021.29 1021.37 1021.44
1014.61 1015.06 1015.10 1015.14 1015.61 1016.07 1016.56 1016.86 1017.12 1017.36 1017.53 1017.71 1017.89 1018.10 1018.30 1018.50 1018.71 1018.91 1019.12 1019.26 1019.38 1019.55 1019.69 1019.90 1020.15 1020.32 1020.37 1020.33 1020.34 1020.40 1020.53 1020.57 1020.50 1020.73 1020.62 1020.50 1020.69 1020.86 1021.04 1021.16 1021.24 1021.38 1021.50
1014.91 1015.41 1015.71 1015.86 1015.83 1016.24 1016.61 1017.05 1017.48 1017.75 1017.85 1017.97 1018.18 1018.36 1018.57 1018.74 1018.93 1019.07 1019.21 1019.41 1019.65 1019.88 1020.06 1020.19 1020.33 1020.46 1020.50 1020.42 1020.29 1020.32 1020.39 1020.52 1020.47 1020.61 1020.56 1020.30 1020.41 1020.62 1020.81 1021.01 1021.23 1021.39 1021.51
1014.85 1015.53 1016.01 1016.22 1016.53 1016.58 1016.69 1017.05 1017.44 1017.84 1018.21 1018.39 1018.47 1018.64 1018.80 1018.97 1019.15 1019.30 1019.42 1019.48 1019.71 1019.99 1020.16 1020.33 1020.45 1020.53 1020.56 1020.50 1020.33 1020.27 1020.27 1020.31 1020.41 1020.55 1020.21 1020.25 1020.16 1020.33 1020.60 1020.86 1021.06 1021.24 1021.40
1015.32 1015.64 1016.14 1016.47 1016.65 1016.97 1017.21 1017.22 1017.42 1017.70 1018.07 1018.47 1018.78 1018.95 1019.08 1019.19 1019.31 1019.46 1019.59 1019.69 1019.80 1019.95 1020.14 1020.34 1020.45 1020.56 1020.61 1020.61 1020.47 1020.19 1020.03 1020.03 1019.89 1020.13 1020.04 1020.03 1019.75 1019.92 1020.23 1020.61 1020.87 1021.08 1021.23
1015.53 1015.75 1016.10 1016.53 1016.75 1016.85 1017.22 1017.58 1017.76 1017.81 1018.00 1018.25 1018.60 1018.94 1019.26 1019.40 1019.50 1019.55 1019.65 1019.74 1019.90 1020.06 1020.14 1020.22 1020.37 1020.47 1020.52 1020.52 1020.43 1020.21 1019.88 1019.80 1019.75 1019.58 1019.33 1019.68 1019.57 1019.64 1019.75 1020.19 1020.54 1020.75 1020.90
1015.07 1015.41 1015.87 1016.37 1016.65 1016.98 1016.97 1017.49 1017.81 1018.21 1018.35 1018.35 1018.40 1018.61 1018.92 1019.19 1019.38 1019.40 1019.52 1019.63 1019.81 1020.03 1020.20 1020.30 1020.34 1020.39 1020.44 1020.45 1020.31 1020.17 1020.02 1019.64 1019.29 1019.22 1019.15 1019.26 1019.17 1019.20 1019.34 1019.57 1020.03 1020.26 1020.41
1014.15 1014.65 1015.12 1015.63 1016.34 1016.62 1016.81 1017.37 1017.77 1017.89 1018.18 1018.51 1018.56 1018.55 1018.54 1018.54 1018.91 1019.15 1019.45 1019.66 1019.84 1019.93 1020.15 1020.26 1020.36 1020.41 1020.39 1020.34 1020.11 1019.97 1019.75 1019.58 1019.24 1018.88 1018.91 1019.08 1018.96 1018.87 1018.88 1019.01 1019.33 1019.63 1019.83
1014.06 1014.26 1014.71 1014.91 1015.49 1016.19 1016.69 1017.00 1017.07 1017.50 1017.98 1018.14 1018.20 1018.52 1018.79 1018.73 1018.58 1018.63 1019.01 1019.30 1019.56 1019.64 1019.93 1020.07 1020.22 1020.19 1020.14 1019.93 1019.75 1019.66 1019.43 1019.21 1018.96 1018.66 1018.69 1018.94 1018.93 1018.82 1018.65 1018.56 1018.64 1018.94 1019.16
1015.27 1014.97 1014.67 1014.80 1015.12 1015.21 1016.10 1016.47 1016.76 1016.96 1017.21 1017.53 1017.89 1018.00 1018.22 1018.54 1018.71 1018.60 1018.50 1018.62 1018.87 1019.19 1019.40 1019.58 1019.74 1019.71 1019.71 1019.58 1019.31 1019.20 1019.02 1018.82 1018.60 1018.47 1018.35 1018.51 1018.63 1018.62 1018.47 1018.25 1018.13 1018.20 1018.33
1016.36 1016.00 1015.65 1015.11 1014.85 1015.02 1015.46 1015.99 1016.38 1016.54 1016.72 1016.99 1017.25 1017.36 1017.58 1017.86 1018.00 1018.22 1018.30 1018.38 1018.37 1018.43 1018.56 1018.69 1018.93 1019.02 1019.07 1018.95 1018.82 1018.62 1018.46 1018.31 1018.10 1017.91 1017.89 1018.02 1018.03 1017.99 1017.93 1017.81 1017.64 1017.56 1017.52
1017.55 1017.25 1016.67 1016.24 1015.76 1015.38 1015.30 1015.46 1015.97 1016.08 1016.45 1016.67 1016.87 1016.94 1017.04 1017.25 1017.52 1017.68 1017.93 1017.81 1017.96 1018.00 1018.10 1018.07 1018.07 1018.28 1018.49 1018.47 1018.43 1018.11 1017.92 1017.75 1017.61 1017.51 1017.40 1017.34 1017.45 1017.48 1017.29 1017.19 1017.10 1017.01 1016.90
1018.68 1018.30 1017.85 1017.54 1017.11 1016.79 1016.53 1015.69 1015.52 1015.78 1015.93 1016.15 1016.19 1016.36 1016.71 1016.78 1016.89 1017.15 1017.40 1017.67 1017.42 1017.48 1017.65 1017.84 1017.88 1017.92 1017.85 1017.77 1017.70 1017.58 1017.57 1017.32 1017.03 1016.94 1016.87 1016.78 1016.62 1016.53 1016.57 1016.50 1016.35 1016.23 1016.16
1019.91 1019.47 1019.05 1018.67 1018.07 1017.81 1017.34 1016.92 1016.78 1016.57 1016.45 1016.04 1015.87 1016.02 1016.08 1016.33 1016.44 1016.62 1016.81 1016.84 1016.94 1017.10 1017.21 1017.39 1017.44 1017.50 1017.42 1017.24 1017.05 1016.85 1016.78 1016.73 1016.63 1016.17 1016.05 1015.88 1015.74 1015.61 1015.44 1015.36 1015.29 1015.25 1015.23
1020.74 1020.47 1020.19 1019.80 1019.23 1018.79 1018.26 1017.82 1017.30 1017.46 1017.69 1017.38 1017.23 1016.99 1016.30 1015.76 1015.74 1015.97 1016.09 1016.16 1016.27 1016.64 1016.75 1016.88 1016.92 1016.89 1016.85 1016.65 1016.57 1016.26 1016.12 1015.90 1015.65 1015.53 1015.25 1014.80 1014.63 1014.49 1014.40 1014.28 1014.20 1014.24 1014.20
1021.51 1021.17 1020.88 1020.49 1020.53 1019.87 1019.24 1018.92 1018.57 1019.00 1018.99 1018.98 1018.79 1018.62 1018.37 1017.84 1016.92 1015.52 1015.16 1015.70 1015.72 1016.14 1016.24 1016.41 1016.49 1016.50 1016.41 1016.37 1016.61 1016.15 1015.79 1015.45 1015.15 1014.66 1014.31 1014.10 1013.84 1013.47 1013.34 1013.16 1013.09 1013.06 1012.99
1022.43 1022.27 1022.04 1021.90 1021.82 1021.56 1021.27 1020.90 1020.60 1020.20 1019.96 1019.90 1019.90 1019.73 1018.94 1018.39 1018.04 1017.70 1017.06 1015.73 1015.24 1015.59 1015.77 1015.83 1016.02 1016.16 1015.82 1015.83 1016.13 1016.20 1015.67 1014.98 1014.10 1013.73 1013.49 1013.20 1012.75 1012.33 1012.18 1012.02 1011.96 1011.95 1011.89
1023.17 1023.11 1023.04 1023.06 1022.93 1022.89 1022.65 1022.17 1021.55 1021.00 1020.58 1020.26 1020.33 1019.83 1019.86 1019.51 1018.81 1019.24 1018.40 1018.37 1017.30 1016.14 1014.93 1014.98 1015.13 1015.36 1015.26 1015.10 1015.07 1015.23 1015.19 1014.42 1013.78 1012.75 1012.31 1011.93 1011.64 1011.57 1011.34 1010.99 1010.87 1010.86 1010.83
1024.09 1023.86 1023.73 1023.70 1023.65 1023.60 1023.45 1023.22 1023.05 1022.93 1022.68 1022.62 1022.16 1021.69 1020.88 1020.34 1019.97 1019.15 1018.96 1018.92 1018.44 1017.63 1017.04 1015.74 1014.35 1014.11 1014.29 1014.29 1014.56 1014.25 1013.64 1013.54 1013.47 1012.59 1011.75 1011.23 1010.82 1010.67 1010.31 1010.19 1010.03 1009.71 1009.52
1024.56 1024.59 1024.40 1024.42 1024.28 1024.10 1023.98 1024.00 1024.00 1023.93 1023.73 1023.34 1022.72 1022.11 1021.64 1021.10 1020.66 1020.30 1019.37 1019.40 1018.65 1018.06 1017.58 1017.16 1015.92 1014.27 1013.27 1013.17 1013.17 1013.33 1013.30 1012.97 1012.83 1012.91 1011.42 1010.90 1010.52 1010.00 1009.55 1009.16 1008.93 1008.73 1008.44
1024.72 1024.70 1024.69 1024.73 1024.73 1024.55 1024.42 1024.47 1024.48 1024.53 1024.32 1023.82 1023.42 1022.84 1022.26 1021.73 1021.28 1020.98 1020.79 1020.04 1019.45 1018.04 1018.00 1017.20 1016.66 1015.57 1013.61 1012.47 1011.92 1011.87 1011.90 1011.87 1011.70 1011.89 1011.35 1010.53 1009.96 1009.01 1008.82 1008.51 1008.11 1007.76 1007.36
Wind_Speed
3 7 12 15 14 14 14 15 13 12 13 13 14 14 14 14 15 15 15 14 13 13 15 15 15 15 16 17 18 18 16 16 17 17 17 16 14 12 13 15 15 13 13
14 8 13 15 15 14 13 15 15 12 12 12 13 14 14 14 13 13 13 13 12 13 14 14 15 15 15 14 13 14 14 15 16 16 15 16 16 16 18 15 13 11 13
14 10 12 15 15 14 13 12 15 14 12 12 12 13 13 13 12 11 11 11 11 12 13 13 14 13 12 10 11 11 10 11 13 14 14 7 8 15 16 14 12 13 12
14 9 10 15 14 14 12 11 12 15 13 12 11 12 12 12 11 11 11 10 10 11 13 12 12 11 9 8 9 9 9 7 5 2 3 6 9 13 13 13 12 12 11
13 11 11 15 13 13 12 11 10 12 12 12 11 11 11 11 10 9 10 9 9 10 12 12 11 8 7 5 6 6 6 5 2 2 2 3 6 9 11 11 10 8 9
11 11 12 14 14 12 12 12 10 10 11 10 11 11 10 10 9 8 8 8 8 9 10 11 9 7 5 3 3 4 3 1 2 3 5 8 7 11 10 10 9 8 8
11 8 9 13 14 13 11 11 11 10 10 9 9 9 9 9 9 8 7 7 7 8 10 9 7 6 4 1 2 2 2 4 4 3 2 7 8 13 11 10 9 8 7
13 10 8 13 14 13 12 11 9 8 9 9 8 8 8 8 7 7 8 7 7 8 8 8 8 6 4 1 4 5 6 6 6 4 5 6 13 13 12 10 8 8 7
13 10 7 7 8 10 12 11 10 10 7 7 7 7 7 7 7 6 6 7 8 7 7 8 7 6 4 2 5 7 7 6 4 3 7 4 15 14 13 12 10 8 7
10 10 7 6 6 5 5 10 10 10 9 8 6 5 5 6 6 6 6 6 7 8 8 8 7 6 5 4 7 10 9 8 5 2 5 5 16 16 15 12 11 10 9
8 9 8 7 6 7 6 6 8 10 10 10 8 7 4 3 4 5 6 7 7 7 7 9 9 7 6 6 8 10 11 3 5 4 4 11 16 18 17 14 12 11 11
12 11 10 7 7 6 7 6 6 4 2 4 5 6 5 5 5 7 7 10 9 7 7 8 9 9 6 4 4 8 5 6 5 2 2 17 17 18 17 16 13 13 12
16 12 13 12 8 7 5 5 3 3 4 3 5 5 6 5 5 4 3 3 3 7 3 5 4 4 5 4 5 4 6 6 5 1 5 14 16 17 17 16 16 15 14
16 15 14 13 12 8 5 5 7 5 4 4 5 6 3 3 4 5 4 6 5 4 5 5 3 5 7 7 8 6 6 6 4 3 4 10 10 13 16 17 17 16 15
14 6 14 13 12 11 8 6 6 6 7 7 6 6 6 5 4 4 5 6 6 5 6 5 6 6 7 8 9 6 8 7 6 3 3 13 12 13 15 17 18 18 18
18 15 5 9 12 10 7 7 6 5 7 6 6 7 10 6 5 4 5 5 6 7 7 8 7 8 8 8 9 10 9 6 6 6 4 6 15 15 15 16 18 19 20
16 17 17 16 6 6 8 6 3 5 5 6 5 7 10 8 7 6 5 5 5 7 8 7 8 5 6 6 10 9 9 9 7 7 6 4 6 16 16 16 17 18 20
16 18 17 15 15 13 12 2 3 2 2 4 6 5 7 10 8 6 4 4 5 4 7 5 7 7 7 7 6 6 7 6 9 9 8 8 8 7 12 18 18 20 20
16 17 18 17 16 15 13 9 10 9 6 5 3 4 7 7 10 9 6 5 6 4 4 5 5 5 7 7 6 6 6 6 8 9 12 13 12 11 9 12 21 21 21
16 16 17 16 19 15 10 8 7 7 9 11 12 11 8 6 10 9 8 8 6 4 5 5 5 5 5 5 8 8 6 9 9 8 11 11 13 14 13 14 10 11 21
13 17 19 19 19 13 14 11 5 8 8 9 10 15 16 15 14 9 8 6 6 8 6 6 5 7 7 3 3 9 7 6 8 10 11 11 12 12 12 14 11 10 10
15 14 16 17 17 14 10 10 5 6 6 6 8 8 14 15 14 17 13 9 12 10 9 6 6 7 6 5 9 2 7 6 10 10 9 11 15 13 12 13 13 13 11
13 12 13 14 14 13 13 9 9 5 7 9 13 12 12 14 15 14 14 14 15 10 10 11 9 9 11 5 10 8 3 8 2 5 12 13 16 12 12 13 13 12 12
8 9 8 10 12 12 12 11 12 8 8 7 8 9 10 12 13 14 14 13 12 9 15 13 8 11 11 13 4 9 15 5 5 6 3 6 10 12 14 10 12 13 14
8 7 7 8 10 8 9 11 8 10 6 6 7 10 11 11 13 13 13 13 13 9 11 14 17 13 11 12 12 11 7 11 14 12 17 11 5 6 10 11 12 11 13
7 7 7 7 7 7 7 8 9 9 10 9 12 10 9 8 8 11 12 10 8 9 11 11 15 16 16 13 12 13 13 11 12 11 13 16 16 15 11 9 10 11 11
Wind_Direction
96 127 118 114 110 106 108 106 98 91 91 87 85 83 78 74 79 82 82 86 92 100 101 99 97 97 93 93 99 102 102 100 93 91 88 87 85 96 102 94 92 94 98
130 128 117 113 111 111 111 114 109 99 93 91 90 89 87 83 81 78 88 94 102 103 99 94 92 88 90 96 100 101 102 103 104 101 97 90 84 85 94 94 94 92 88
117 122 116 112 115 113 115 118 118 110 101 96 95 94 93 91 91 94 96 91 96 97 97 94 95 88 88 93 87 92 100 109 119 120 107 94 85 92 97 97 94 99 101
119 114 114 112 116 117 118 121 119 119 114 104 98 94 93 93 89 90 98 98 100 103 104 97 98 88 87 83 94 98 97 101 113 91 72 118 105 104 105 107 113 113 113
115 118 118 116 114 121 123 122 121 120 116 113 109 103 98 95 95 93 95 102 102 107 107 104 103 100 93 98 96 97 97 92 63 315 359 148 117 121 123 124 125 118 124
107 120 123 122 119 121 127 126 121 120 119 118 117 113 110 106 101 102 102 106 102 108 112 112 115 111 105 81 70 72 79 85 295 285 237 160 131 138 134 135 125 124 127
108 112 118 126 123 125 125 126 128 127 125 124 120 118 118 119 120 121 117 115 111 104 105 110 107 101 101 67 344 337 344 345 311 318 136 143 142 148 144 143 135 137 139
117 112 119 133 138 130 128 129 130 131 135 136 133 131 127 129 132 134 133 130 124 118 116 122 130 137 150 240 304 320 324 326 322 323 212 150 156 156 154 154 156 159 158
116 116 117 122 127 131 136 137 138 139 140 144 145 145 141 139 144 146 146 145 139 139 142 146 152 160 174 233 295 304 303 308 294 276 172 171 163 164 169 173 173 174 177
117 121 125 125 124 118 136 142 145 147 148 150 152 151 151 158 162 163 163 166 161 160 163 167 171 176 193 235 281 295 297 308 300 165 219 210 171 171 173 180 184 187 193
129 134 136 146 152 145 133 150 150 156 157 159 160 165 152 177 186 176 186 186 184 183 185 185 189 196 216 253 268 276 287 289 278 269 195 186 178 179 176 181 187 193 201
151 153 150 157 161 161 158 146 149 162 165 173 170 168 180 204 197 192 202 186 192 194 204 210 209 213 226 244 259 261 272 273 272 245 190 179 184 185 183 179 189 200 206
163 159 164 158 166 179 144 157 167 168 170 201 209 185 194 199 197 200 170 186 183 200 203 213 224 228 237 239 250 240 242 263 271 213 189 197 195 194 188 184 191 203 210
163 165 167 163 161 184 148 176 174 167 184 193 196 196 208 240 210 192 173 183 187 186 200 206 211 225 235 243 245 246 238 244 254 271 192 212 213 209 200 195 196 205 213
14 179 172 165 169 182 159 182 183 185 183 187 200 194 186 212 242 231 190 184 190 184 197 201 207 218 228 238 249 236 244 240 243 246 201 196 211 219 218 210 207 209 214
27 20 11 183 172 179 187 173 182 200 188 191 190 198 194 206 211 209 227 197 198 194 200 202 203 214 224 226 237 248 247 245 250 261 214 204 214 217 220 219 217 217 218
28 28 25 24 342 184 189 190 188 185 189 192 203 202 196 197 213 220 224 227 197 210 210 210 217 211 222 226 234 237 243 250 248 245 254 230 216 230 222 221 224 225 225
35 32 29 27 25 24 11 333 212 232 239 194 213 197 199 208 203 217 213 241 254 198 215 208 217 226 226 216 219 226 235 232 236 236 238 243 246 232 226 229 227 229 228
37 37 35 28 30 24 16 17 25 358 348 298 218 215 221 201 212 212 221 228 233 247 239 214 213 215 225 230 230 234 231 230 234 236 236 236 237 240 237 226 227 229 231
39 36 40 35 27 26 20 7 24 18 13 12 5 358 313 227 206 204 217 222 221 234 245 249 235 237 225 217 240 245 232 238 237 230 235 232 232 231 234 238 231 232 230
39 38 33 31 25 21 22 9 18 17 17 15 5 359 356 359 338 245 209 223 224 225 229 225 234 227 255 234 255 256 263 245 249 246 243 239 237 232 230 232 232 233 232
33 42 39 34 29 26 18 13 14 351 20 26 15 10 21 6 6 4 337 260 219 229 234 229 222 249 252 197 232 223 268 281 251 237 234 237 239 238 237 231 231 229 230
40 39 45 42 35 27 22 19 14 7 17 13 5 10 9 10 21 10 8 359 345 289 235 227 228 215 251 238 222 216 251 238 269 235 237 236 241 238 242 238 234 226 227
31 26 39 49 43 37 24 26 28 29 17 357 353 347 357 5 14 16 11 3 358 351 350 300 238 230 235 248 244 231 238 207 232 299 269 251 244 241 239 239 238 234 230
57 45 32 49 38 37 37 31 27 23 4 348 353 356 359 356 359 4 13 357 357 352 351 332 335 277 231 233 238 240 239 247 250 250 267 262 262 238 238 233 232 232 233
66 55 41 54 49 35 42 38 31 21 4 2 356 357 351 350 352 352 348 348 331 340 342 337 333 322 286 247 237 234 235 238 242 242 255 258 260 259 252 245 236 236 233